WXM80 ListenWXM80 Stop

You find our weather info also at:

UK Metoffice

WeatherCloud

Weather Underground

Northeastern Weather Network

AWEKAS

Citizen Weather Observer Program (CWOP)

HAMweather, WeatherForYou, PWS Weather


Weather Underground History page Text

Daily Summary for January 21, 2016 Units:  English    Metric   Both
« Previous Day
Next Day »
Daily Weekly Monthly Yearly Custom
  High: Low: Average:
Temperature: 37.7 °F 26.9 °F 31.2 °F
Dew Point: 19.8 °F 11.7 °F 17.5 °F
Humidity: 69 % 45 % 57 %
Wind Speed: 11.0 mph 0.8 mph 5 mph
Wind Gust: 19.6 mph - -
Wind:- - West
Pressure: 30.22 in 30.04 in -
Precipitation: 0.00 in    
Historical Graphs
 
 
Tabular Data for January 21, 2016
Time Temperature Dew Point Pressure Wind Wind Speed Wind Gust Humidity Rainfall Rate (Hourly)
00:03 30.7 °F 17.7 °F 30.05 in NE 5.0 mph 9.2 mph 58 % 0.00 in
00:08 30.5 °F 17.9 °F 30.04 in NE 5.4 mph 6.9 mph 59 % 0.00 in
00:18 30.3 °F 17.7 °F 30.05 in NNW 2.1 mph 5.8 mph 59 % 0.00 in
00:24 30.2 °F 17.6 °F 30.05 in NNW 2.2 mph 4.6 mph 59 % 0.00 in
00:44 29.9 °F 18.1 °F 30.05 in NNE 3.8 mph 5.8 mph 61 % 0.00 in
00:49 29.8 °F 17.6 °F 30.05 in NNE 3.7 mph 5.8 mph 60 % 0.00 in
00:54 29.8 °F 17.6 °F 30.05 in North 3.6 mph 6.0 mph 60 % 0.00 in
00:59 29.8 °F 17.6 °F 30.05 in NNW 0.8 mph 4.6 mph 60 % 0.00 in
01:09 29.7 °F 17.5 °F 30.04 in NNE 2.0 mph 5.0 mph 60 % 0.00 in
01:15 29.7 °F 17.5 °F 30.05 in NE 1.9 mph 3.5 mph 60 % 0.00 in
01:20 29.6 °F 17.4 °F 30.05 in North 3.0 mph 6.9 mph 60 % 0.00 in
01:25 29.5 °F 17.7 °F 30.05 in NNE 3.3 mph 6.9 mph 61 % 0.00 in
01:30 29.5 °F 17.7 °F 30.04 in NNE 2.2 mph 3.5 mph 61 % 0.00 in
01:35 29.4 °F 18.0 °F 30.05 in NNE 3.5 mph 4.6 mph 62 % 0.00 in
01:40 29.3 °F 17.9 °F 30.05 in NNW 1.6 mph 7.0 mph 62 % 0.00 in
01:45 29.3 °F 17.5 °F 30.05 in NNW 2.7 mph 6.9 mph 61 % 0.00 in
01:50 29.2 °F 17.4 °F 30.05 in NNE 1.5 mph 3.5 mph 61 % 0.00 in
01:55 29.2 °F 17.8 °F 30.04 in NNE 3.9 mph 5.0 mph 62 % 0.00 in
02:00 29.1 °F 17.7 °F 30.05 in NNE 4.3 mph 6.9 mph 62 % 0.00 in
02:06 29.0 °F 17.6 °F 30.05 in NE 5.7 mph 9.2 mph 62 % 0.00 in
02:11 29.0 °F 17.6 °F 30.05 in NNE 4.0 mph 8.0 mph 62 % 0.00 in
02:16 29.0 °F 17.6 °F 30.05 in North 4.7 mph 9.2 mph 62 % 0.00 in
02:21 29.0 °F 18.0 °F 30.05 in NNW 3.4 mph 6.9 mph 63 % 0.00 in
02:26 29.0 °F 17.6 °F 30.04 in North 4.1 mph 6.9 mph 62 % 0.00 in
02:31 29.0 °F 18.0 °F 30.04 in NNE 4.4 mph 9.0 mph 63 % 0.00 in
02:36 29.1 °F 17.7 °F 30.04 in North 3.0 mph 8.1 mph 62 % 0.00 in
02:41 29.1 °F 18.1 °F 30.04 in NW 2.9 mph 5.0 mph 63 % 0.00 in
02:46 29.1 °F 18.1 °F 30.04 in NNW 4.7 mph 8.0 mph 63 % 0.00 in
02:51 29.0 °F 17.6 °F 30.04 in North 6.8 mph 11.5 mph 62 % 0.00 in
02:57 29.1 °F 18.4 °F 30.05 in NNW 6.6 mph 8.0 mph 64 % 0.00 in
03:02 29.1 °F 18.4 °F 30.05 in NNW 5.3 mph 10.4 mph 64 % 0.00 in
03:07 29.1 °F 18.1 °F 30.04 in NE 5.6 mph 11.5 mph 63 % 0.00 in
03:12 29.2 °F 18.2 °F 30.04 in NNE 9.0 mph 15.0 mph 63 % 0.00 in
03:17 29.2 °F 18.5 °F 30.04 in NNE 4.9 mph 8.1 mph 64 % 0.00 in
03:22 29.2 °F 18.5 °F 30.04 in NNW 7.6 mph 12.0 mph 64 % 0.00 in
03:27 29.2 °F 18.2 °F 30.04 in North 5.3 mph 9.0 mph 63 % 0.00 in
03:32 29.2 °F 18.2 °F 30.04 in NNW 5.3 mph 9.0 mph 63 % 0.00 in
03:37 29.2 °F 18.5 °F 30.04 in NNW 6.6 mph 15.0 mph 64 % 0.00 in
03:42 29.2 °F 18.2 °F 30.04 in NNW 4.3 mph 11.5 mph 63 % 0.00 in
03:48 29.1 °F 18.1 °F 30.04 in NW 6.0 mph 11.5 mph 63 % 0.00 in
03:53 29.0 °F 18.0 °F 30.04 in WNW 8.6 mph 13.8 mph 63 % 0.00 in
03:58 29.0 °F 18.0 °F 30.04 in NNW 5.5 mph 11.5 mph 63 % 0.00 in
04:08 28.9 °F 17.9 °F 30.04 in WNW 3.6 mph 8.1 mph 63 % 0.00 in
04:13 28.9 °F 17.9 °F 30.04 in NNW 3.0 mph 3.5 mph 63 % 0.00 in
04:18 28.9 °F 18.2 °F 30.04 in North 5.2 mph 9.2 mph 64 % 0.00 in
04:23 28.9 °F 18.2 °F 30.04 in NNW 3.6 mph 9.2 mph 64 % 0.00 in
04:33 28.8 °F 18.1 °F 30.05 in NW 5.4 mph 6.0 mph 64 % 0.00 in
04:39 28.8 °F 18.1 °F 30.05 in NNW 5.7 mph 11.5 mph 64 % 0.00 in
04:44 28.7 °F 17.7 °F 30.05 in NNW 5.1 mph 11.5 mph 63 % 0.00 in
04:49 28.7 °F 17.7 °F 30.04 in NNW 4.3 mph 11.5 mph 63 % 0.00 in
04:59 28.6 °F 18.0 °F 30.05 in North 5.4 mph 13.8 mph 64 % 0.00 in
05:04 28.5 °F 17.5 °F 30.06 in North 6.6 mph 10.4 mph 63 % 0.00 in
05:09 28.4 °F 17.4 °F 30.06 in NNE 8.1 mph 12.7 mph 63 % 0.00 in
05:14 28.3 °F 17.7 °F 30.06 in NNW 4.2 mph 9.2 mph 64 % 0.00 in
05:19 28.2 °F 17.9 °F 30.06 in North 4.7 mph 8.1 mph 65 % 0.00 in
05:24 28.1 °F 17.8 °F 30.06 in North 5.1 mph 11.5 mph 65 % 0.00 in
05:30 28.1 °F 17.8 °F 30.06 in NNW 4.6 mph 5.8 mph 65 % 0.00 in
05:35 28.1 °F 17.8 °F 30.06 in NNW 4.4 mph 11.5 mph 65 % 0.00 in
05:40 28.0 °F 18.1 °F 30.06 in NNW 5.1 mph 9.2 mph 66 % 0.00 in
05:45 28.0 °F 18.1 °F 30.07 in NNW 6.7 mph 10.4 mph 66 % 0.00 in
05:50 27.9 °F 17.6 °F 30.07 in NW 1.8 mph 4.6 mph 65 % 0.00 in
05:55 27.8 °F 17.6 °F 30.07 in NNW 4.6 mph 9.2 mph 65 % 0.00 in
06:00 27.8 °F 17.6 °F 30.08 in WNW 1.5 mph 4.6 mph 65 % 0.00 in
06:05 27.6 °F 17.7 °F 30.07 in NNW 2.9 mph 3.5 mph 66 % 0.00 in
06:10 27.6 °F 17.7 °F 30.08 in North 1.1 mph 5.8 mph 66 % 0.00 in
06:15 27.5 °F 17.6 °F 30.08 in NNW 2.1 mph 3.5 mph 66 % 0.00 in
06:20 27.5 °F 17.6 °F 30.09 in NNW 3.9 mph 6.9 mph 66 % 0.00 in
06:26 27.4 °F 17.5 °F 30.09 in North 3.9 mph 5.8 mph 66 % 0.00 in
06:31 27.3 °F 17.8 °F 30.09 in NW 1.2 mph 3.5 mph 67 % 0.00 in
06:36 27.2 °F 17.7 °F 30.09 in NNW 2.6 mph 5.8 mph 67 % 0.00 in
06:41 27.2 °F 17.7 °F 30.09 in North 3.1 mph 5.8 mph 67 % 0.00 in
06:46 27.2 °F 18.0 °F 30.09 in NNW 0.9 mph 2.3 mph 68 % 0.00 in
06:51 27.1 °F 17.9 °F 30.09 in NW 1.5 mph 3.5 mph 68 % 0.00 in
06:56 27.0 °F 18.2 °F 30.09 in WNW 2.5 mph 6.9 mph 69 % 0.00 in
07:01 27.0 °F 18.2 °F 30.09 in NNW 2.6 mph 3.5 mph 69 % 0.00 in
07:06 27.0 °F 17.8 °F 30.09 in NNW 3.5 mph 10.4 mph 68 % 0.00 in
07:11 27.0 °F 17.8 °F 30.10 in NW 3.8 mph 6.0 mph 68 % 0.00 in
07:17 27.0 °F 17.8 °F 30.10 in WNW 3.1 mph 8.1 mph 68 % 0.00 in
07:22 27.1 °F 17.9 °F 30.11 in NW 2.0 mph 3.5 mph 68 % 0.00 in
07:27 27.1 °F 17.9 °F 30.11 in WNW 3.4 mph 5.8 mph 68 % 0.00 in
07:32 27.1 °F 17.9 °F 30.11 in NW 2.7 mph 5.8 mph 68 % 0.00 in
07:37 27.1 °F 17.9 °F 30.11 in NW 5.1 mph 6.9 mph 68 % 0.00 in
07:42 27.2 °F 18.4 °F 30.12 in NNW 3.4 mph 9.2 mph 69 % 0.00 in
07:47 27.2 °F 18.0 °F 30.12 in NNW 3.9 mph 6.9 mph 68 % 0.00 in
07:57 27.3 °F 18.5 °F 30.12 in North 3.7 mph 6.9 mph 69 % 0.00 in
08:02 27.4 °F 18.6 °F 30.12 in NW 4.3 mph 9.2 mph 69 % 0.00 in
08:08 27.5 °F 18.7 °F 30.12 in NNW 3.2 mph 4.6 mph 69 % 0.00 in
08:13 27.6 °F 18.8 °F 30.11 in WNW 4.0 mph 5.8 mph 69 % 0.00 in
08:18 27.7 °F 18.8 °F 30.12 in NW 2.9 mph 6.0 mph 69 % 0.00 in
08:23 27.8 °F 18.9 °F 30.12 in NW 4.8 mph 10.4 mph 69 % 0.00 in
08:28 27.9 °F 18.4 °F 30.12 in NW 4.1 mph 8.1 mph 67 % 0.00 in
08:33 28.1 °F 18.9 °F 30.12 in WNW 2.9 mph 5.8 mph 68 % 0.00 in
08:38 28.2 °F 18.6 °F 30.12 in NNW 5.3 mph 8.1 mph 67 % 0.00 in
08:43 28.3 °F 18.7 °F 30.12 in WNW 4.4 mph 6.9 mph 67 % 0.00 in
08:48 28.5 °F 19.3 °F 30.12 in NNW 2.1 mph 5.8 mph 68 % 0.00 in
08:59 28.8 °F 18.9 °F 30.12 in WNW 5.4 mph 9.2 mph 66 % 0.00 in
09:04 29.0 °F 18.7 °F 30.13 in WNW 5.0 mph 10.4 mph 65 % 0.00 in
09:09 29.2 °F 18.9 °F 30.13 in NW 4.1 mph 8.1 mph 65 % 0.00 in
09:14 29.3 °F 19.0 °F 30.12 in WNW 4.2 mph 9.2 mph 65 % 0.00 in
09:19 29.5 °F 19.2 °F 30.13 in WNW 1.5 mph 3.5 mph 65 % 0.00 in
09:29 30.1 °F 19.4 °F 30.12 in WNW 3.0 mph 10.4 mph 64 % 0.00 in
09:34 30.3 °F 19.2 °F 30.12 in NW 3.5 mph 5.8 mph 63 % 0.00 in
09:39 30.5 °F 19.4 °F 30.11 in NW 4.6 mph 6.9 mph 63 % 0.00 in
09:44 30.7 °F 19.2 °F 30.11 in NW 1.9 mph 3.5 mph 62 % 0.00 in
09:50 30.9 °F 19.4 °F 30.11 in NW 3.5 mph 8.1 mph 62 % 0.00 in
09:55 31.1 °F 19.2 °F 30.11 in NW 6.4 mph 8.1 mph 61 % 0.00 in
10:00 31.2 °F 18.9 °F 30.12 in WNW 3.7 mph 9.2 mph 60 % 0.00 in
10:05 31.4 °F 19.5 °F 30.12 in West 2.0 mph 4.0 mph 61 % 0.00 in
10:10 31.6 °F 19.3 °F 30.13 in NW 5.4 mph 8.1 mph 60 % 0.00 in
10:15 32.0 °F 19.7 °F 30.13 in NW 3.5 mph 6.9 mph 60 % 0.00 in
10:20 32.3 °F 19.6 °F 30.13 in West 6.8 mph 10.4 mph 59 % 0.00 in
10:25 32.6 °F 19.8 °F 30.13 in WNW 2.2 mph 9.2 mph 59 % 0.00 in
10:30 32.9 °F 19.3 °F 30.14 in WNW 5.7 mph 7.0 mph 57 % 0.00 in
10:35 33.1 °F 19.5 °F 30.14 in WNW 4.8 mph 8.1 mph 57 % 0.00 in
10:41 33.2 °F 19.2 °F 30.14 in NW 5.3 mph 9.2 mph 56 % 0.00 in
10:46 33.3 °F 18.9 °F 30.14 in NNW 5.4 mph 9.2 mph 55 % 0.00 in
10:51 33.4 °F 19.4 °F 30.14 in NNE 7.3 mph 11.5 mph 56 % 0.00 in
10:56 33.4 °F 18.9 °F 30.14 in WNW 4.8 mph 8.1 mph 55 % 0.00 in
11:01 33.6 °F 19.1 °F 30.14 in NW 4.4 mph 8.1 mph 55 % 0.00 in
11:06 33.8 °F 19.3 °F 30.14 in WNW 7.9 mph 14.0 mph 55 % 0.00 in
11:11 33.7 °F 18.4 °F 30.13 in West 5.0 mph 9.2 mph 53 % 0.00 in
11:16 33.7 °F 18.8 °F 30.14 in North 8.0 mph 8.1 mph 54 % 0.00 in
11:21 33.7 °F 18.4 °F 30.13 in NW 5.8 mph 13.0 mph 53 % 0.00 in
11:26 33.7 °F 18.8 °F 30.13 in WNW 6.6 mph 6.9 mph 54 % 0.00 in
11:32 33.8 °F 18.9 °F 30.13 in NE 4.1 mph 12.7 mph 54 % 0.00 in
11:37 34.0 °F 19.1 °F 30.13 in NNW 4.4 mph 6.9 mph 54 % 0.00 in
11:42 34.1 °F 19.6 °F 30.13 in NW 2.7 mph 7.0 mph 55 % 0.00 in
11:47 34.2 °F 19.3 °F 30.12 in NNW 3.8 mph 8.0 mph 54 % 0.00 in
11:52 34.3 °F 18.9 °F 30.12 in NW 2.4 mph 6.9 mph 53 % 0.00 in
11:57 34.5 °F 19.1 °F 30.12 in WNW 6.9 mph 9.2 mph 53 % 0.00 in
12:02 34.5 °F 18.7 °F 30.12 in NW 5.0 mph 8.0 mph 52 % 0.00 in
12:07 34.5 °F 19.1 °F 30.12 in North 4.7 mph 6.0 mph 53 % 0.00 in
12:12 34.6 °F 18.3 °F 30.12 in North 5.5 mph 6.9 mph 51 % 0.00 in
12:17 34.7 °F 18.9 °F 30.12 in WNW 4.8 mph 8.1 mph 52 % 0.00 in
12:23 34.9 °F 19.0 °F 30.12 in NNW 4.0 mph 8.1 mph 52 % 0.00 in
12:28 35.2 °F 18.4 °F 30.12 in WNW 7.1 mph 10.4 mph 50 % 0.00 in
12:33 35.5 °F 18.7 °F 30.11 in NNW 3.2 mph 6.9 mph 50 % 0.00 in
12:38 35.6 °F 18.3 °F 30.10 in NNE 5.4 mph 6.9 mph 49 % 0.00 in
12:43 35.8 °F 19.4 °F 30.10 in WSW 4.6 mph 8.1 mph 51 % 0.00 in
12:48 35.9 °F 18.6 °F 30.10 in WNW 3.7 mph 8.1 mph 49 % 0.00 in
12:53 35.8 °F 18.5 °F 30.09 in NNW 2.6 mph 10.0 mph 49 % 0.00 in
12:58 35.8 °F 18.0 °F 30.09 in WSW 4.5 mph 10.4 mph 48 % 0.00 in
13:03 35.8 °F 18.0 °F 30.09 in NNW 4.0 mph 10.4 mph 48 % 0.00 in
13:08 35.9 °F 18.6 °F 30.09 in WSW 5.8 mph 10.4 mph 49 % 0.00 in
13:14 36.0 °F 18.7 °F 30.09 in WNW 6.4 mph 6.9 mph 49 % 0.00 in
13:19 36.0 °F 18.7 °F 30.09 in NNW 4.8 mph 11.5 mph 49 % 0.00 in
13:24 36.1 °F 18.3 °F 30.09 in WNW 7.3 mph 12.7 mph 48 % 0.00 in
13:29 36.2 °F 18.4 °F 30.09 in West 3.7 mph 9.0 mph 48 % 0.00 in
13:34 36.4 °F 18.1 °F 30.08 in NNW 3.7 mph 5.8 mph 47 % 0.00 in
13:39 36.7 °F 19.3 °F 30.08 in NNW 2.3 mph 5.8 mph 49 % 0.00 in
13:44 37.0 °F 19.1 °F 30.08 in North 3.2 mph 8.1 mph 48 % 0.00 in
13:49 37.3 °F 18.4 °F 30.08 in WNW 6.0 mph 9.2 mph 46 % 0.00 in
13:54 37.5 °F 19.1 °F 30.08 in NNW 3.7 mph 6.9 mph 47 % 0.00 in
13:59 37.7 °F 18.8 °F 30.08 in WNW 3.8 mph 4.6 mph 46 % 0.00 in
14:05 37.7 °F 18.2 °F 30.07 in NW 2.7 mph 9.2 mph 45 % 0.00 in
14:10 37.7 °F 18.2 °F 30.07 in West 3.7 mph 8.1 mph 45 % 0.00 in
14:15 37.7 °F 19.3 °F 30.07 in NNW 3.0 mph 7.0 mph 47 % 0.00 in
14:20 37.7 °F 18.2 °F 30.07 in NNW 3.9 mph 11.5 mph 45 % 0.00 in
14:25 37.5 °F 18.1 °F 30.07 in NW 3.0 mph 5.8 mph 45 % 0.00 in
14:30 37.5 °F 19.6 °F 30.07 in North 3.7 mph 8.1 mph 48 % 0.00 in
14:35 37.3 °F 18.4 °F 30.07 in WNW 3.9 mph 8.0 mph 46 % 0.00 in
14:40 37.1 °F 18.2 °F 30.07 in North 6.0 mph 8.1 mph 46 % 0.00 in
14:45 37.0 °F 18.6 °F 30.07 in NNW 4.7 mph 8.1 mph 47 % 0.00 in
14:50 36.8 °F 18.4 °F 30.07 in NNW 4.4 mph 9.2 mph 47 % 0.00 in
14:56 36.7 °F 17.8 °F 30.07 in WNW 2.0 mph 10.4 mph 46 % 0.00 in
15:01 36.6 °F 18.2 °F 30.07 in WNW 3.7 mph 14.0 mph 47 % 0.00 in
15:06 36.4 °F 18.1 °F 30.08 in NW 5.8 mph 10.4 mph 47 % 0.00 in
15:11 36.4 °F 17.6 °F 30.07 in WNW 3.8 mph 8.1 mph 46 % 0.00 in
15:16 36.3 °F 17.5 °F 30.08 in West 4.0 mph 8.1 mph 46 % 0.00 in
15:21 36.3 °F 18.0 °F 30.08 in WNW 3.3 mph 5.0 mph 47 % 0.00 in
15:26 36.2 °F 17.4 °F 30.08 in WNW 5.1 mph 13.8 mph 46 % 0.00 in
15:31 36.1 °F 17.3 °F 30.08 in West 6.2 mph 11.0 mph 46 % 0.00 in
15:36 36.0 °F 17.2 °F 30.08 in NW 5.5 mph 8.1 mph 46 % 0.00 in
15:41 36.0 °F 17.2 °F 30.08 in WNW 7.3 mph 11.0 mph 46 % 0.00 in
15:47 35.9 °F 17.1 °F 30.08 in West 7.3 mph 10.0 mph 46 % 0.00 in
15:52 35.8 °F 17.5 °F 30.08 in NW 3.8 mph 10.4 mph 47 % 0.00 in
15:57 35.7 °F 16.9 °F 30.08 in NW 5.0 mph 11.0 mph 46 % 0.00 in
16:02 35.6 °F 17.3 °F 30.08 in NW 5.0 mph 11.5 mph 47 % 0.00 in
16:12 35.5 °F 16.7 °F 30.08 in WNW 5.2 mph 10.4 mph 46 % 0.00 in
16:17 35.4 °F 17.6 °F 30.09 in West 5.4 mph 10.4 mph 48 % 0.00 in
16:22 35.3 °F 18.0 °F 30.09 in NNW 3.7 mph 5.8 mph 49 % 0.00 in
16:27 35.2 °F 17.9 °F 30.09 in NW 5.6 mph 8.1 mph 49 % 0.00 in
16:32 35.1 °F 17.4 °F 30.09 in WNW 3.4 mph 8.1 mph 48 % 0.00 in
16:38 35.0 °F 17.7 °F 30.09 in NW 4.6 mph 8.1 mph 49 % 0.00 in
16:43 34.8 °F 17.6 °F 30.09 in NW 5.0 mph 9.2 mph 49 % 0.00 in
16:48 34.8 °F 18.0 °F 30.10 in West 4.9 mph 9.2 mph 50 % 0.00 in
16:53 34.6 °F 18.3 °F 30.10 in WNW 4.7 mph 8.1 mph 51 % 0.00 in
16:58 34.5 °F 18.2 °F 30.10 in NW 4.8 mph 10.4 mph 51 % 0.00 in
17:03 34.4 °F 18.1 °F 30.10 in NW 7.8 mph 15.0 mph 51 % 0.00 in
17:08 34.3 °F 17.6 °F 30.10 in West 5.7 mph 10.4 mph 50 % 0.00 in
17:13 34.2 °F 17.9 °F 30.11 in WNW 9.6 mph 19.0 mph 51 % 0.00 in
17:18 34.1 °F 18.3 °F 30.11 in West 7.5 mph 15.0 mph 52 % 0.00 in
17:24 33.9 °F 18.6 °F 30.12 in WNW 6.9 mph 12.7 mph 53 % 0.00 in
17:29 33.7 °F 17.9 °F 30.12 in WNW 8.9 mph 17.3 mph 52 % 0.00 in
17:34 33.4 °F 18.1 °F 30.12 in West 4.4 mph 12.7 mph 53 % 0.00 in
17:39 33.2 °F 18.3 °F 30.12 in WNW 7.8 mph 11.5 mph 54 % 0.00 in
17:44 33.0 °F 17.3 °F 30.12 in NW 5.7 mph 17.3 mph 52 % 0.00 in
17:49 32.9 °F 18.1 °F 30.12 in NW 8.8 mph 16.1 mph 54 % 0.00 in
17:59 32.8 °F 18.4 °F 30.13 in North 4.8 mph 13.8 mph 55 % 0.00 in
18:04 32.7 °F 18.3 °F 30.14 in WSW 7.0 mph 12.7 mph 55 % 0.00 in
18:09 32.6 °F 17.8 °F 30.14 in NW 7.4 mph 9.2 mph 54 % 0.00 in
18:15 32.5 °F 18.1 °F 30.14 in West 7.9 mph 11.5 mph 55 % 0.00 in
18:20 32.4 °F 18.0 °F 30.15 in West 7.3 mph 13.8 mph 55 % 0.00 in
18:25 32.3 °F 18.3 °F 30.15 in WSW 5.8 mph 15.0 mph 56 % 0.00 in
18:30 32.2 °F 18.2 °F 30.15 in NNW 5.5 mph 12.7 mph 56 % 0.00 in
18:35 32.1 °F 17.7 °F 30.15 in NW 11.0 mph 18.4 mph 55 % 0.00 in
18:40 32.0 °F 17.6 °F 30.15 in WNW 6.3 mph 12.0 mph 55 % 0.00 in
18:45 31.9 °F 17.5 °F 30.15 in WNW 8.0 mph 15.0 mph 55 % 0.00 in
18:55 31.8 °F 17.5 °F 30.16 in NW 8.6 mph 15.0 mph 55 % 0.00 in
19:00 31.7 °F 16.5 °F 30.16 in WNW 7.2 mph 11.5 mph 53 % 0.00 in
19:06 31.7 °F 17.4 °F 30.17 in NW 9.3 mph 19.6 mph 55 % 0.00 in
19:11 31.6 °F 16.8 °F 30.17 in NW 8.7 mph 15.0 mph 54 % 0.00 in
19:16 31.6 °F 16.4 °F 30.17 in NW 10.0 mph 17.0 mph 53 % 0.00 in
19:21 31.5 °F 17.2 °F 30.17 in WNW 6.7 mph 11.5 mph 55 % 0.00 in
19:26 31.4 °F 16.7 °F 30.17 in NNW 4.9 mph 13.8 mph 54 % 0.00 in
19:31 31.4 °F 16.2 °F 30.17 in WNW 5.8 mph 11.5 mph 53 % 0.00 in
19:36 31.4 °F 15.8 °F 30.17 in NW 5.3 mph 6.9 mph 52 % 0.00 in
19:41 31.3 °F 16.1 °F 30.17 in WNW 5.9 mph 13.0 mph 53 % 0.00 in
19:51 31.1 °F 15.1 °F 30.17 in NNW 7.8 mph 11.5 mph 51 % 0.00 in
19:57 31.0 °F 15.4 °F 30.17 in NNW 8.1 mph 9.2 mph 52 % 0.00 in
20:02 31.0 °F 15.0 °F 30.17 in NW 4.8 mph 15.0 mph 51 % 0.00 in
20:07 30.9 °F 14.9 °F 30.17 in North 8.2 mph 17.3 mph 51 % 0.00 in
20:12 30.8 °F 15.7 °F 30.17 in NW 7.6 mph 12.7 mph 53 % 0.00 in
20:17 30.8 °F 15.7 °F 30.17 in WNW 6.6 mph 11.0 mph 53 % 0.00 in
20:22 30.8 °F 16.1 °F 30.17 in WNW 7.0 mph 10.4 mph 54 % 0.00 in
20:27 30.7 °F 16.0 °F 30.17 in WNW 6.7 mph 12.7 mph 54 % 0.00 in
20:32 30.7 °F 16.0 °F 30.18 in NW 5.4 mph 13.0 mph 54 % 0.00 in
20:37 30.6 °F 15.9 °F 30.17 in WNW 5.5 mph 11.5 mph 54 % 0.00 in
20:42 30.5 °F 16.2 °F 30.18 in West 5.4 mph 11.5 mph 55 % 0.00 in
20:48 30.5 °F 16.2 °F 30.18 in NW 6.4 mph 12.7 mph 55 % 0.00 in
20:53 30.4 °F 15.3 °F 30.18 in WNW 8.4 mph 15.0 mph 53 % 0.00 in
20:58 30.4 °F 15.7 °F 30.19 in WNW 6.4 mph 13.8 mph 54 % 0.00 in
21:03 30.3 °F 15.2 °F 30.18 in North 7.3 mph 12.7 mph 53 % 0.00 in
21:13 30.1 °F 15.4 °F 30.18 in NW 6.4 mph 11.5 mph 54 % 0.00 in
21:18 30.0 °F 14.9 °F 30.18 in NNW 6.2 mph 11.5 mph 53 % 0.00 in
21:23 29.9 °F 15.3 °F 30.19 in NW 7.6 mph 19.6 mph 54 % 0.00 in
21:28 29.9 °F 15.3 °F 30.19 in NW 6.6 mph 9.2 mph 54 % 0.00 in
21:39 29.8 °F 15.6 °F 30.19 in West 3.9 mph 9.0 mph 55 % 0.00 in
21:44 29.9 °F 16.1 °F 30.19 in NNW 4.5 mph 10.4 mph 56 % 0.00 in
21:49 29.9 °F 15.3 °F 30.19 in NW 6.9 mph 15.0 mph 54 % 0.00 in
21:54 29.7 °F 15.1 °F 30.19 in NNW 6.2 mph 9.2 mph 54 % 0.00 in
21:59 29.6 °F 15.0 °F 30.18 in NE 3.9 mph 8.1 mph 54 % 0.00 in
22:04 29.5 °F 14.9 °F 30.18 in NNW 6.5 mph 11.5 mph 54 % 0.00 in
22:09 29.4 °F 15.2 °F 30.17 in NW 4.6 mph 12.7 mph 55 % 0.00 in
22:14 29.2 °F 15.0 °F 30.17 in WNW 6.3 mph 12.7 mph 55 % 0.00 in
22:19 29.2 °F 15.0 °F 30.17 in NNW 9.7 mph 13.8 mph 55 % 0.00 in
22:24 29.0 °F 14.8 °F 30.18 in North 5.3 mph 11.5 mph 55 % 0.00 in
22:30 28.9 °F 14.7 °F 30.18 in North 5.5 mph 8.1 mph 55 % 0.00 in
22:35 28.8 °F 15.1 °F 30.19 in NW 8.4 mph 10.4 mph 56 % 0.00 in
22:40 28.8 °F 15.1 °F 30.19 in NNW 8.6 mph 12.7 mph 56 % 0.00 in
22:45 28.6 °F 14.9 °F 30.19 in NNW 7.1 mph 12.7 mph 56 % 0.00 in
22:50 28.5 °F 14.4 °F 30.19 in North 8.4 mph 13.8 mph 55 % 0.00 in
22:55 28.4 °F 14.3 °F 30.20 in NNW 6.9 mph 12.7 mph 55 % 0.00 in
23:00 28.3 °F 14.2 °F 30.19 in NNW 5.6 mph 10.4 mph 55 % 0.00 in
23:05 28.3 °F 13.8 °F 30.19 in WNW 7.0 mph 11.5 mph 54 % 0.00 in
23:10 28.1 °F 13.1 °F 30.20 in North 8.4 mph 13.8 mph 53 % 0.00 in
23:15 28.0 °F 12.6 °F 30.20 in North 6.8 mph 16.0 mph 52 % 0.00 in
23:21 27.8 °F 12.4 °F 30.21 in NNE 7.8 mph 13.8 mph 52 % 0.00 in
23:26 27.7 °F 11.9 °F 30.21 in North 6.6 mph 12.7 mph 51 % 0.00 in
23:31 27.5 °F 12.2 °F 30.21 in North 6.8 mph 13.8 mph 52 % 0.00 in
23:36 27.4 °F 12.1 °F 30.21 in North 6.8 mph 11.5 mph 52 % 0.00 in
23:41 27.2 °F 11.9 °F 30.21 in NW 6.4 mph 12.7 mph 52 % 0.00 in
23:46 27.1 °F 11.8 °F 30.21 in NNE 6.1 mph 12.0 mph 52 % 0.00 in
23:51 27.0 °F 11.7 °F 30.22 in NNW 4.5 mph 16.1 mph 52 % 0.00 in
23:56 26.9 °F 12.0 °F 30.22 in NW 3.0 mph 6.9 mph 53 % 0.00 in
Crab Meadow Weather
Compliments of Weather Underground - 3 mb

Script developed by  Jim McMurry - jmcmurry@mwt.net Adapted for the template by  Wim van der Kuil - Leuven-Template.eu

Clouds: Partly sunny and partly cloudy indicate the same amount of cloud coverage - about 50 percent. Partly sunny is used during the daytime, and partly cloudy is used at night when there is no sun.